Location: Hilton Head Island
(32.2163°N, 80.7526°W)
Time: 14:12:48
(UTC-04:00)

Transit 2A Rocket - Pass Details

Date: 06 February 2026
Orbit: 583 x 900 km, 66.7° (Epoch: 12 March)

Event Time Altitude Azimuth Distance (km) Brightness Sun altitude
Rises 19:14:29 0° 223° (SW) 3,407 9.2 -15.9°
Reaches altitude 10° 19:17:02 10° 230° (SW) 2,507 8.6 -16.4°
Maximum altitude 19:22:35 42° 301° (WNW) 1,247 6.5 -17.6°
Drops below altitude 10° 19:28:17 10° 11° (NNE) 2,577 7.5 -18.8°
Enters shadow 19:30:52 - 18° (NNE) 3,481 8.2 -19.3°
Sets 19:30:57 0° 18° (NNE) 3,513 - -19.3°
